Other Public Products
Issued by NWS Charleston, SC

Current Version | Previous Version | Graphics & Text | Print | Product List | Glossary Off
Versions: 1 2 3 4 5 6 7 8 9 10 11 12 13 14 15 16 17 18 19 20 21 22 23 24 25 26 27 28 29 30 31 32 33 34 35 36 37 38 39 40 41 42 43 44 45 46 47 48 49 50

893
FPUS82 KCHS 232012
OPUCHS

TEST...KCHS/KSAV Gateway Observations...TEST
National Weather Service Charleston SC
300 PM EST TUE JAN 23 2018

NOTE: "fair" indicates few or no clouds below 12,000 feet with no
significant weather and/or obstructions to visibility.

SCZ050-WAZ558-NCZ071-TXZ119-213-PAZ071-DCZ001-FLZ074-172-MI076-
NYZ176-178-MAZ016-IL014-TNZ027-NJZ106-GAZ044-MD014-232100-

...Gateway Observations for Charleston International...

CITY           SKY/WX    TMP DP  RH WIND       PRES   REMARKS
Chas Airport   FAIR      76  49  38 W23G32    29.85S
Seattle        LGT RAIN  43  39  86 SE9       29.91F
Charlotte      FAIR      62  29  28 W15G23    29.80R
Dallas DFW     MOSUNNY   58  17  20 NW6       30.26F
Dallas Love    MOSUNNY   57  19  22 N6        30.28F
Philladelphia  PTSUNNY   61  45  55 W16       29.56R
Wash National  PTSUNNY   61  45  55 NW21G30   29.63R
Baltimore      PTSUNNY   58  44  60 W20G26    29.61R
Miami          PTSUNNY   81  70  69 SE13G21   30.00F
Detroit        CLOUDY    36  27  69 W21G29    29.65R WCI  25
Newark         PTSUNNY   62  47  57 SW12      29.51F
Laguardia      PTSUNNY   59  50  72 W5        29.51F
J F K          PTSUNNY   52  51  97 S9        29.53F
Boston Logan   HVY RAIN  54  53  97 S26G36    29.46F FOG
Ft. Lauderdale PTSUNNY   80  71  74 S10       29.99F
Chicago O`Hare CLOUDY    30  22  72 NW14      29.89R WCI  19
Chicago Midway FLURRIES  31  24  75 NW13      29.90R WCI  21
Houston Bush   PTSUNNY   65  21  18 NW10      30.23F
Houston Hobby  PTSUNNY   63  19  18 NW10      30.22F
Nashville      CLOUDY    43  29  57 W7        30.06R
Atlanta        PTSUNNY   55  31  39 W17G25    29.98S

$$

GAZ044-118-TXZ119-213-NCZ071-DCZ001-MDZ014-506-PAZ021-071-NJZ106-
NYZ176-178-MAZ106-OHZ011-021-055-MIZ076-KYZ091-ILZ014-INZ047-
MNZ060-ONZ431-232100-

...Gateway Observations for Savannah International...

CITY           SKY/WX    TMP DP  RH WIND       PRES   REMARKS
Savannah Arpt  PTSUNNY   75  46  35 W22       29.91S
Atlanta        PTSUNNY   55  31  39 W17G25    29.98S
Charlotte      FAIR      62  29  28 W15G23    29.80R
Dallas DFW     MOSUNNY   58  17  20 NW6       30.26F
Houston Bush   PTSUNNY   65  21  18 NW10      30.23F
Wash National  PTSUNNY   61  45  55 NW21G30   29.63R
Wash Dulles    FAIR      58  41  53 NW18G26   29.64R
Baltimore      PTSUNNY   58  44  60 W20G26    29.61R
Philadelphia   PTSUNNY   61  45  55 W16       29.56R
Newark         PTSUNNY   62  47  57 SW12      29.51F
Laguardia      PTSUNNY   59  50  72 W5        29.51F
J F K          PTSUNNY   52  51  97 S9        29.53F
Boston         HVY RAIN  54  53  97 S26G36    29.46F FOG
Pittsburg      CLOUDY    40  31  70 W14G22    29.71R WCI  32
Akron          FLURRIES  38  27  64 W18G35    29.70R WCI  28
Cleveland      DRIZZLE   39  32  76 SW25G36   29.70R WCI  28
Cincinnati     DRIZZLE   38  34  85 SW13G22   29.90R WCI  30
Columbus       CLOUDY    40  33  77 W17G25    29.82R WCI  31
Detroit        CLOUDY    36  27  69 W21G29    29.65R WCI  25
Chicago O`Hare CLOUDY    30  22  72 NW14      29.89R WCI  19
Minneapolis    FAIR      25  15  66 NW13      30.07S WCI  14
Indianapolis   CLOUDY    36  33  89 W18       29.90R WCI  26
Toronto Canada CLOUDY    39  32  75 SW21G30   29.49R WCI  29

$$




USA.gov is the U.S. government's official web portal to all federal, state and local government web resources and services.